This is the latest recevied weather packets stored in our database for station/object SP8IZA-1. If no packets are shown the sender has not sent any weather packets the latest 10 day(s).
| Time | Temp. | Humidity | Pressure | Rain* | Wind** | Luminosity | Snow |
|---|---|---|---|---|---|---|---|
| 1777225216 | 9.44° C | 44% | 1018.4 hPa | - | - | - | - |
| 1777224915 | 9.44° C | 44% | 1018.3 hPa | - | - | - | - |
| 1777224615 | 10° C | 44% | 1018.2 hPa | - | - | - | - |
| 1777224314 | 10° C | 44% | 1018.1 hPa | - | - | - | - |
| 1777224014 | 10.56° C | 44% | 1018 hPa | - | - | - | - |
| 1777223713 | 10.56° C | 44% | 1017.9 hPa | - | - | - | - |
| 1777223413 | 11.11° C | 43% | 1017.8 hPa | - | - | - | - |
| 1777223112 | 11.11° C | 43% | 1017.7 hPa | - | - | - | - |
| 1777222812 | 11.67° C | 43% | 1017.7 hPa | - | - | - | - |
| 1777222511 | 12.22° C | 44% | 1017.6 hPa | - | - | - | - |
| 1777222211 | 12.78° C | 43% | 1017.6 hPa | - | - | - | - |
| 1777221910 | 13.33° C | 42% | 1017.6 hPa | - | - | - | - |
| 1777221610 | 13.89° C | 42% | 1017.3 hPa | - | - | - | - |
| 1777221309 | 14.44° C | 42% | 1017.4 hPa | - | - | - | - |
| 1777221009 | 15° C | 42% | 1017.3 hPa | - | - | - | - |
| 1777220708 | 15° C | 41% | 1017.2 hPa | - | - | - | - |
| 1777220408 | 15.56° C | 41% | 1017.1 hPa | - | - | - | - |
| 1777220107 | 16.11° C | 41% | 1017.1 hPa | - | - | - | - |
| 1777219807 | 16.11° C | 41% | 1017 hPa | - | - | - | - |
| 1777219506 | 16.11° C | 41% | 1017 hPa | - | - | - | - |
| 1777219206 | 16.11° C | 41% | 1017 hPa | - | - | - | - |
| 1777218905 | 16.11° C | 41% | 1017 hPa | - | - | - | - |
| 1777218605 | 16.11° C | 41% | 1017.1 hPa | - | - | - | - |
| 1777218304 | 16.11° C | 41% | 1016.9 hPa | - | - | - | - |
| 1777218004 | 15.56° C | 41% | 1016.8 hPa | - | - | - | - |
* Rain since midnight (hover to see other rain measurements)
** Current wind speed in m/s (hover to see current wind gust speed)